Regional Weather Roundup
Issued by NWS

Home | Current Version | Previous Version | Graphics & Text | Print | Product List | Glossary On
Versions: 1 2 3 4 5 6 7 8 9 10 11 12 13 14 15 16 17 18 19 20 21 22 23 24 25 26 27 28 29 30 31 32 33 34 35 36 37 38 39 40 41 42 43 44 45 46 47 48 49 50
007
ASUS45 KBOI 040810
RWRID

IDAHO REGIONAL WEATHER ROUNDUP
NATIONAL WEATHER SERVICE BOISE ID
100 AM MST SUN DEC 04 2016

NOTE: "FAIR" INDICATES FEW OR NO CLOUDS BELOW 12000 FEET
WITH NO SIGNIFICANT WEATHER AND/OR OBSTRUCTIONS TO VISIBILITY

IDZ012-014-040900-
SOUTHWEST IDAHO


CITY           SKY/WX    TMP DP  RH WIND       PRES   REMARKS
BOISE          CLOUDY    36  28  73 SE9       30.14F WCI  29
CALDWELL       MOCLDY    34  27  75 SE6       30.16F WCI  29
MOUNTAIN HOME  PTCLDY    27  25  94 E8        30.16F WCI  18
$$

IDZ016-017-040900-
SOUTHCENTRAL IDAHO


CITY           SKY/WX    TMP DP  RH WIND       PRES   REMARKS
BURLEY         PTCLDY    33  22  63 SW17      30.14F WCI  22
JEROME         PTCLDY    30  22  72 S6        30.16F WCI  24
TWIN FALLS     PTCLDY    33  19  56 S12       30.14F WCI  24
$$

IDZ019>023-040900-
SOUTHEAST IDAHO


CITY           SKY/WX    TMP DP  RH WIND       PRES   REMARKS
IDAHO FALLS    CLOUDY    30  25  81 SW9       30.12F WCI  22
POCATELLO      CLOUDY    34  24  67 S15       30.14F WCI  24
REXBURG        CLOUDY    27  25  92 SW5       30.11F WCI  22
$$

IDZ006-010-011-018-031-032-040900-
CENTRAL IDAHO MOUNTAINS


CITY           SKY/WX    TMP DP  RH WIND       PRES   REMARKS
MCCALL         MIX PCPN  27  23  85 CALM      30.06F
HAILEY         CLEAR     19  18  93 NW9       30.13F WCI   9
STANLEY          N/A     22  13  68 CALM      30.10S
SALMON         CLOUDY    25  18  74 N5        30.07F WCI  19
CHALLIS        MOCLDY    24  18  77 CALM      30.05F
$$

IDZ002-004-006-007-026-040900-
NORTHERN IDAHO


CITY           SKY/WX    TMP DP  RH WIND       PRES   REMARKS
LEWISTON       LGT RAIN  45  32  60 SW8       30.06F
LOWELL           N/A     36  33  89 CALM      30.13F
COEUR D`ALENE  CLOUDY    38  32  79 S10       29.96F WCI  31
MULLAN PASS    LGT SNOW  24  22  91 SW12G22   29.87F VSB 1   WCI  13
$$




USA.gov is the U.S. government's official web portal to all federal, state and local government web resources and services.